5ème Jogging de Jalhay
5ème Jogging de Jalhay 04/05/2014 - 10,2 km
Mise à jour le : 04/05/2014 à 16:28
Classement définitif, aucune correction possible
Place Nom Prénom Dossard Temps Vitesse Allure Place. Cat. Catégorie
1 MICHEL LUC 498 36:12 16,90 3:32 1 Séniors
2 KEUTGENS MARIO 402 38:03 16,08 3:43 2 Séniors
3 BRASSEUR GREGORY 886 38:27 15,92 3:46 3 Séniors
4 HERZET FREDERICK 4 38:59 15,70 3:49 4 Séniors
5 WALRAFF WALLY 678 38:59 15,70 3:49 1 Vétérans 1
6 HEINS FREDERIC 884 39:27 15,51 3:52 5 Séniors
7 FRACASSI BRUNO 293 39:51 15,36 3:54 2 Vétérans 1
8 DORTU FRANCOIS 781 40:04 15,27 3:55 6 Séniors
9 DORTU PATRICK 1 40:05 15,27 3:55 7 Séniors
10 BREUER GUILLAUME 114 40:10 15,24 3:56 8 Séniors
11 LICATA GIOVANNI 708 40:29 15,12 3:58 3 Vétérans 1
12 DELCOUR PHILIPPE 190 41:08 14,88 4:02 9 Séniors
13 SAMYN STEPHAN 591 41:16 14,83 4:02 10 Séniors
14 CAMPIONE MICHAEL 857 41:20 14,80 4:03 11 Séniors
15 VAN HAUTEN KEVIN 650 41:24 14,78 4:03 12 Séniors
16 LORQUET JEAN-MARC 461 41:31 14,74 4:04 1 Vétérans 2
17 DUPUIS GAETAN 698 41:38 14,70 4:04 13 Séniors
18 BREUER JEROME 113 41:44 14,66 4:05 14 Séniors
19 JASPAR JULIEN 382 41:46 14,65 4:05 15 Séniors
20 VANHULST BENOIT 662 41:47 14,64 4:05 16 Séniors
21 LEGROS GHISLAIN 432 41:51 14,62 4:06 4 Vétérans 1
22 GELIS PHILIPPE 805 41:59 14,57 4:07 5 Vétérans 1
23 ALBERT RAPHAEL 833 42:23 14,44 4:09 17 Séniors
24 STASSEN CEDRIC 619 42:30 14,40 4:10 18 Séniors
25 STAS CHRISTIAN 713 42:43 14,33 4:11 2 Vétérans 2
26 LAURENT PHILIPPE 423 42:48 14,29 4:11 6 Vétérans 1
27 HAVET MANU 343 42:53 14,27 4:12 7 Vétérans 1
28 HOUBBEN OLIVIER 861 42:55 14,26 4:12 19 Séniors
29 PALM RAPHAEL 531 42:59 14,23 4:12 20 Séniors
30 DESSOUROUX JEAN 227 43:00 14,23 4:13 1 Vétérans 3
31 VINDERS ROGER 889 43:02 14,22 4:13 21 Séniors
32 GODELAINE STEPHANE 323 43:11 14,17 4:14 22 Séniors
33 DESMECHT JAMES 224 43:12 14,16 4:14 8 Vétérans 1
34 DETAILLE JULIEN 228 43:18 14,13 4:14 23 Séniors
35 FOGUENNE TIZIANO 290 43:30 14,07 4:15 1 Espoirs Garçons
36 AGNOLI PIERRE 40 43:40 14,01 4:16 24 Séniors
37 FETTWEIS VERONIQUE 282 43:41 14,01 4:17 1 Dames
38 LESO PIERRE 783 43:46 13,98 4:17 25 Séniors
39 SWINNEN PHILIPPE 755 43:51 13,95 4:18 9 Vétérans 1
40 CHARLIER PIERRE 138 43:53 13,94 4:18 10 Vétérans 1
41 DOUVEN THOMAS 245 43:54 13,94 4:18 26 Séniors
42 PIRLET MARTIN 540 43:59 13,91 4:18 27 Séniors
43 GARROI CYRILLE 304 44:02 13,90 4:19 28 Séniors
44 NAHON CHRISTIAN 827 44:08 13,86 4:19 11 Vétérans 1
45 LAMBERTZ SEBASTIEN 879 44:10 13,85 4:19 29 Séniors
46 KOCH PHILIPPE 834 44:12 13,84 4:20 12 Vétérans 1
47 VANDERVALLE OLIVIER 891 44:15 13,83 4:20 30 Séniors
48 SCALCO FABIAN 593 44:20 13,80 4:20 31 Séniors
49 VANLOO XAVIER 663 44:23 13,79 4:21 32 Séniors
50 D'ACQUISTO ALEX 885 44:25 13,78 4:21 33 Séniors
51 VANDEWEYER FLORIAN 756 44:28 13,76 4:21 2 Espoirs Garçons
52 D'HAENE OLIVIER 235 44:35 13,72 4:22 34 Séniors
53 BEUKEN DIDIER 81 44:40 13,70 4:22 3 Vétérans 2
54 VANDENBORRE JULIEN 657 44:47 13,66 4:23 35 Séniors
55 PIERRE FABIAN 538 44:50 13,65 4:23 36 Séniors
56 HEUSE FRANCK 874 44:53 13,63 4:24 13 Vétérans 1
57 COLSON MICHEL 846 44:54 13,63 4:24 14 Vétérans 1
58 PAULY DIDIER 758 44:55 13,62 4:24 15 Vétérans 1
59 EVRARD FRANCOISE 13 44:56 13,62 4:24 2 Dames
60 BOGAERT CHARLY 94 44:57 13,61 4:24 16 Vétérans 1
61 THONART MARC 780 44:59 13,60 4:24 17 Vétérans 1
62 JASPAR CHRISTIAN 383 45:01 13,59 4:24 2 Vétérans 3
63 FASSIN JEFF 277 45:03 13,58 4:25 37 Séniors
64 THOMSON GERALD 759 45:04 13,58 4:25 18 Vétérans 1
65 FREDERICH DOMINIQUE 763 45:13 13,53 4:26 1 Ainées 2
66 VANHOVEN JEROME 823 45:30 13,45 4:27 38 Séniors
67 LEGRAND JOSEPH 844 45:35 13,42 4:28 4 Vétérans 2
68 AGUS PAOLO 41 45:42 13,39 4:28 19 Vétérans 1
69 DECKERS BERNARD 800 45:50 13,35 4:29 39 Séniors
70 ZIANT SEBASTIEN 696 45:55 13,32 4:30 40 Séniors
71 STAS SOPHIE 712 46:06 13,27 4:31 1 Ainées 1
72 MANCINI ROBIN 473 46:08 13,26 4:31 20 Vétérans 1
73 HALLEUX JEAN MARIE 337 46:13 13,24 4:31 21 Vétérans 1
74 COLLARD SERGE 145 46:14 13,24 4:32 22 Vétérans 1
75 NAWYN BENJAMIN 5 46:16 13,23 4:32 23 Vétérans 1
76 NICOLAS FRANCIS 518 46:21 13,20 4:32 24 Vétérans 1
77 EL-BALDI DRISS 259 46:40 13,11 4:34 3 Espoirs Garçons
78 HAVARD OLIVIER 796 46:43 13,10 4:34 25 Vétérans 1
79 HAGERMANN PHILIPPE 771 46:50 13,07 4:35 26 Vétérans 1
80 EL-BALDI SAID 258 46:54 13,05 4:35 27 Vétérans 1
81 BONIVER ARNAUD 101 46:58 13,03 4:36 4 Espoirs Garçons
82 NYSSEN PIERRE 723 46:59 13,02 4:36 28 Vétérans 1
83 PAROTTE JEREMY 839 47:01 13,01 4:36 41 Séniors
84 WEYENBERG LAURENT 688 47:02 13,01 4:36 42 Séniors
85 LORQUET MARC 460 47:18 12,94 4:38 29 Vétérans 1
86 FASSIN JEAN-PHILIPPE 286 47:21 12,92 4:38 43 Séniors
87 DUMOULIN ANTOINE 822 47:23 12,92 4:38 44 Séniors
88 LEGRAND JEAN MARC 798 47:24 12,91 4:38 5 Vétérans 2
89 GILLET FABRICE 318 47:25 12,90 4:38 45 Séniors
90 HARDY GREGORY 866 47:28 12,89 4:39 46 Séniors
91 BRAGARD ALEXANDRE 108 47:32 12,87 4:39 47 Séniors
92 DEKEMPENER THIBAUD 188 47:38 12,85 4:40 48 Séniors
93 LECLERCQ GILLES 835 47:50 12,79 4:41 49 Séniors
94 THIELEN ALAIN 630 47:54 12,77 4:41 30 Vétérans 1
95 ROOMANS CHRISTIAN 581 47:56 12,77 4:41 6 Vétérans 2
96 HEUSSCHEN DOMINIQUE 359 48:01 12,74 4:42 7 Vétérans 2
97 GILSON RENAUD 753 48:05 12,73 4:42 5 Espoirs Garçons
98 BUSCH ANTHONY 813 48:09 12,71 4:43 31 Vétérans 1
99 BUSCH TIMOTHY 814 48:10 12,70 4:43 6 Espoirs Garçons
100 JACQUES ETIENNE 376 48:12 12,70 4:43 50 Séniors
101 THIRION ALAIN 808 48:21 12,65 4:44 8 Vétérans 2
102 HEINRICHS GREGORY 346 48:31 12,61 4:45 51 Séniors
103 DECKERS JEAN LOUIS 777 48:34 12,60 4:45 32 Vétérans 1
104 SOLHI KHALID 612 48:47 12,54 4:47 33 Vétérans 1
105 THIBEAUT ANTONY 887 48:52 12,52 4:47 52 Séniors
106 DEGIVE VINCENT 15 48:56 12,51 4:47 9 Vétérans 2
107 FRANCOIS THIBAUT 859 49:00 12,49 4:48 53 Séniors
108 OUTMANNS BERNARD 888 49:11 12,44 4:49 54 Séniors
109 RENAUVILLE JEAN MARC 768 49:15 12,42 4:49 55 Séniors
110 SCHOONBROODT BENOIT 3 49:17 12,42 4:49 34 Vétérans 1
111 TROUDI KAMEL 643 49:19 12,41 4:50 10 Vétérans 2
112 BEAUVE VINCENT 785 49:23 12,39 4:50 35 Vétérans 1
113 JAEGERS GREGORY 379 49:38 12,33 4:52 56 Séniors
114 SERVAIS NATHALIE 795 49:40 12,32 4:52 2 Ainées 2
115 LONNEUX MARCEL 458 49:44 12,30 4:52 11 Vétérans 2
116 SABEL KEVIN 802 49:57 12,25 4:53 57 Séniors
117 FAUTRE JEAN-CLAUDE 786 49:59 12,24 4:54 12 Vétérans 2
118 CARL ROGER 775 50:01 12,23 4:54 13 Vétérans 2
119 NICOLAI FABIAN 871 50:03 12,23 4:54 36 Vétérans 1
120 DAVIN JEAN FRANCOIS 872 50:03 12,22 4:54 58 Séniors
121 STAINIER ERIC 701 50:17 12,17 4:55 14 Vétérans 2
122 SCHWEYEN MAEVA 806 50:25 12,14 4:56 3 Dames
123 ANDRIEN TONY 51 50:25 12,13 4:56 15 Vétérans 2
124 GOMZE MICHEL 272 50:26 12,13 4:56 37 Vétérans 1
125 HENNES PHILIPPE 181 50:35 12,10 4:57 38 Vétérans 1
126 BROUWIER PIERRE 121 50:45 12,06 4:58 3 Vétérans 3
127 BLODEN BENJAMIN 90 50:49 12,04 4:58 59 Séniors
128 SOOLS GEOFFREY 616 50:52 12,03 4:59 60 Séniors
129 SPRONCK CHRISTIAN 867 50:54 12,02 4:59 16 Vétérans 2
130 COUNET PETER 751 50:57 12,01 4:59 61 Séniors
131 JOTTARD BILLY 829 50:59 12,00 4:59 62 Séniors
132 RAWAY LOUIS 812 51:01 12,00 5:00 4 Vétérans 3
133 DEMOL CINDY 211 51:04 11,98 5:00 2 Ainées 1
134 SCHNAKERS ARNAUD 595 51:09 11,96 5:00 63 Séniors
135 MAZZULLI MARC 493 51:10 11,96 5:01 64 Séniors
136 BONFOND PATRICK 97 51:12 11,95 5:01 39 Vétérans 1
137 BONFOND DAVID 99 51:13 11,95 5:01 40 Vétérans 1
138 HABSCH FRANÇOIS 782 51:15 11,94 5:01 41 Vétérans 1
139 MARQUET YANNICK 702 51:17 11,93 5:01 65 Séniors
140 ROGISTER CHRISTIANE 722 51:26 11,90 5:02 3 Ainées 2
141 HAMDAOUI MOULOUD 837 51:39 11,85 5:03 66 Séniors
142 LORQUET SYLVIE 741 51:43 11,83 5:04 4 Ainées 2
143 HERNANDEZ RODRIGUEZ MANUEL 354 51:44 11,83 5:04 42 Vétérans 1
144 LARBUISSON JESSICA 420 51:45 11,82 5:04 4 Dames
145 DESSAUCY QUENTIN 843 51:46 11,82 5:04 67 Séniors
146 HEYWOOD BRYON 817 51:48 11,81 5:04 5 Vétérans 3
147 CHEBIL RAMI 139 51:51 11,80 5:05 68 Séniors
148 BAGUETTE FRANCIS 54 51:52 11,80 5:05 43 Vétérans 1
149 FILOT CHARLES 832 52:08 11,74 5:06 7 Espoirs Garçons
150 MATHIEU CLAUDY 486 52:10 11,73 5:06 69 Séniors
151 LEGROS LIONEL 435 52:12 11,72 5:07 70 Séniors
152 TRILLET LAURENT 784 52:13 11,72 5:07 71 Séniors
153 MARTIN RENAUD 849 52:15 11,71 5:07 72 Séniors
154 DAELE MATTHIEU 161 52:16 11,71 5:07 73 Séniors
155 VANSTEENBRUGGE VINCENT 828 52:18 11,70 5:07 74 Séniors
156 HAGEMANN GERMAIN 869 52:19 11,69 5:07 8 Espoirs Garçons
157 BRANCE JOSÉ 820 52:23 11,68 5:08 44 Vétérans 1
158 PIERRET SEBASTIEN 848 52:24 11,68 5:08 75 Séniors
159 PEZZETTI SERGIO 779 52:32 11,65 5:09 76 Séniors
160 DEVILLERS ALAIN 811 52:33 11,64 5:09 17 Vétérans 2
161 LODOMEZ GWENAELLE 455 52:34 11,64 5:09 5 Dames
162 FISCHER RAPHAEL 826 52:36 11,63 5:09 77 Séniors
163 BECKS CHRISTOPHE 762 52:39 11,62 5:09 78 Séniors
164 DELHEZ THIERRY 778 52:41 11,62 5:09 45 Vétérans 1
165 DE LEO PASCAL 30 52:48 11,59 5:10 6 Vétérans 3
166 BRASSEUR ROBERT 881 52:52 11,57 5:11 18 Vétérans 2
167 BOULANGER NATHALIE 789 52:54 11,57 5:11 5 Ainées 2
168 BYTHELL WILLIAM 819 52:55 11,56 5:11 7 Vétérans 3
169 MOUREAU CAROLE 509 52:57 11,56 5:11 3 Ainées 1
170 REUCHAMPS REGINE 571 53:08 11,52 5:12 6 Ainées 2
171 PIROTTON DIDIER 864 53:28 11,45 5:14 46 Vétérans 1
172 BRAHAM MICHAEL 472 53:29 11,44 5:14 79 Séniors
173 HURLET LUCIEN 724 53:32 11,43 5:14 19 Vétérans 2
174 THISSEN MICHEL 877 53:34 11,42 5:15 20 Vétérans 2
175 MAC THISS 878 53:35 11,42 5:15 21 Vétérans 2
176 POLIS LUCIENNE 807 53:37 11,41 5:15 7 Ainées 2
177 TEMPELS ALAIN 627 53:40 11,40 5:15 22 Vétérans 2
178 DRIESKENS DAVID 803 53:50 11,37 5:16 80 Séniors
179 LEYENS PATRICK 851 53:52 11,36 5:16 47 Vétérans 1
180 KILESSE REMI 404 53:54 11,35 5:17 81 Séniors
181 PERROT EMILE 788 53:55 11,35 5:17 48 Vétérans 1
182 BAIWIR ANTHONY 57 54:06 11,31 5:18 82 Séniors
183 JONLET LIONEL 388 54:08 11,30 5:18 83 Séniors
184 MASCHIETTO MARC 818 54:09 11,30 5:18 49 Vétérans 1
185 HAUGLUSTAINE GILLES 787 54:43 11,18 5:21 84 Séniors
186 MICHAUX THEO 880 54:52 11,15 5:22 9 Espoirs Garçons
187 BOULANGER EMMANUEL 105 54:55 11,14 5:23 50 Vétérans 1
188 BADENBERG BERNARD 53 55:08 11,10 5:24 51 Vétérans 1
189 FETTWEIS THIERRY 281 55:16 11,07 5:25 23 Vétérans 2
190 BREUER JULIE 115 55:22 11,05 5:25 6 Dames
191 REINERTZ SIMON 873 55:31 11,02 5:26 85 Séniors
192 ERNST BERNARD 264 55:33 11,02 5:26 52 Vétérans 1
193 ZIANT CHRISTOPHE 697 55:51 10,95 5:28 86 Séniors
194 COLLARD GEORGY 809 56:14 10,88 5:30 87 Séniors
195 ROMAO SERGIO 870 56:24 10,85 5:31 88 Séniors
196 VAN DE WIELE CHANTAL 648 56:29 10,83 5:32 8 Ainées 2
197 ORBAN SARAH 528 56:31 10,83 5:32 7 Dames
198 LINCE GUY 452 56:33 10,82 5:32 24 Vétérans 2
199 VOISIN HELENE 671 56:34 10,82 5:32 4 Ainées 1
200 SONTAG THIERRY 615 56:40 10,80 5:33 89 Séniors
201 WEBER GERTY 683 56:44 10,79 5:33 1 Ainées 3
202 ZANGERLE BRIGITTE 395 57:14 10,69 5:36 9 Ainées 2
203 MASSON PASCALE 485 57:18 10,68 5:37 10 Ainées 2
204 MEUNIER DIDIER 865 57:20 10,67 5:37 25 Vétérans 2
205 HONNAY SOPHIE 363 57:30 10,64 5:38 5 Ainées 1
206 WANSART PIERRE 680 57:31 10,64 5:38 53 Vétérans 1
207 MANSET ADELINE 474 57:48 10,59 5:40 8 Dames
208 KAISER BRUNO 883 57:53 10,57 5:40 54 Vétérans 1
209 BASTIN PAUL 61 58:02 10,55 5:41 8 Vétérans 3
210 LICATA SALVATORE 772 58:10 10,52 5:42 9 Vétérans 3
211 LEJEUNE DAVID 794 58:14 10,51 5:42 55 Vétérans 1
212 DOHOGNE SANDRINE 239 58:22 10,49 5:43 6 Ainées 1
213 LAMBERT CARINE 414 58:24 10,48 5:43 7 Ainées 1
214 THISSEN FREDERICK 632 58:26 10,47 5:43 56 Vétérans 1
215 DE TOFFOL YVES 842 58:28 10,47 5:43 57 Vétérans 1
216 REPPEN NICOLAS 570 58:29 10,46 5:44 58 Vétérans 1
217 GUENFOUDI AICHA 330 58:31 10,46 5:44 8 Ainées 1
218 MARCOTTE DOMINIQUE 478 58:31 10,46 5:44 9 Ainées 1
219 LATINIS CINDY 863 58:45 10,41 5:45 9 Dames
220 CAMMARATA PINO 882 58:50 10,40 5:46 90 Séniors
221 JUSTIN ARIANE 838 58:51 10,40 5:46 10 Ainées 1
222 SCHREURS BERNARD 600 58:55 10,39 5:46 91 Séniors
223 HENDRICK JAMES 765 58:59 10,37 5:47 10 Espoirs Garçons
224 LEMAITRE JEAN PIERRE 766 59:00 10,37 5:47 59 Vétérans 1
225 ERNOULD FRANCIS 263 59:09 10,35 5:47 26 Vétérans 2
226 CORDONNIER YANNICK 847 59:10 10,34 5:48 92 Séniors
227 PIRLOT BERNARD 541 59:18 10,32 5:48 93 Séniors
228 ROUFOSSE UGO 34 59:26 10,30 5:49 60 Vétérans 1
229 WERY ANNE MARIE 875 59:31 10,28 5:50 11 Ainées 2
230 THYS ARNO 853 1:00:05 10,18 5:53 94 Séniors
231 LEVAUX MORGANE 852 1:00:11 10,17 5:54 10 Dames
232 BELBOOM LOUIS 761 1:00:12 10,17 5:54 11 Espoirs Garçons
233 HAGEMANN LUCA 793 1:00:14 10,16 5:54 12 Espoirs Garçons
234 JENNES SANDRINE 718 1:00:16 10,15 5:54 11 Ainées 1
235 LEMIN MARCA 444 1:00:17 10,15 5:54 95 Séniors
236 EVRARD AUDE 821 1:00:52 10,05 5:58 11 Dames
237 CHARLIER GARY 892 1:01:09 10,01 5:59 96 Séniors
238 DERU GENEVIEVE 890 1:01:30 9,95 6:01 12 Dames
239 MOLTERA LAURA 862 1:01:50 9,90 6:03 13 Dames
240 KOENIG SIMON 760 1:02:05 9,86 6:05 13 Espoirs Garçons
241 HAGEMANN JULIEN 792 1:02:07 9,85 6:05 14 Espoirs Garçons
242 DUERINCK GEOFFREY 754 1:02:08 9,85 6:05 15 Espoirs Garçons
243 AREN ANNE 854 1:02:18 9,82 6:06 14 Dames
244 ORBAN STEPHANE 855 1:02:19 9,82 6:06 97 Séniors
245 TODOROUSKI KRISTINA 757 1:02:37 9,77 6:08 1 Espoirs Filles
246 WEBER GILBERTE 682 1:02:45 9,75 6:09 2 Ainées 3
247 ABAD LAMAS HAYDEE PATRICIA 37 1:02:55 9,73 6:10 12 Ainées 2
248 GOUDERDEBEAUREGARD GAEL 801 1:03:03 9,71 6:10 16 Espoirs Garçons
249 BLIN ALEXANDRE 776 1:03:04 9,70 6:11 17 Espoirs Garçons
250 DUVNYAK RACHEL 797 1:03:08 9,69 6:11 15 Dames
251 MAHY MELANIE 471 1:03:10 9,69 6:11 16 Dames
252 SCHAUS SANDRINE 810 1:03:14 9,68 6:11 12 Ainées 1
253 WILLEM MARIE 831 1:03:15 9,68 6:12 17 Dames
254 GOHY JULIEN 324 1:03:24 9,65 6:12 98 Séniors
255 STOLSEM ROMAIN 804 1:03:25 9,65 6:13 18 Espoirs Garçons
256 WILKIN ANDRE 690 1:03:34 9,63 6:13 10 Vétérans 3
257 TAETER LOUIS 896 1:03:36 9,62 6:14 19 Espoirs Garçons
258 LOVENBERG GUY 465 1:03:37 9,62 6:14 27 Vétérans 2
259 LAHAYE VANESSA 411 1:04:08 9,54 6:17 13 Ainées 1
260 HENDRICK SENNY 769 1:04:09 9,54 6:17 20 Espoirs Garçons
261 HENDRICK YVES 752 1:04:10 9,54 6:17 61 Vétérans 1
262 JANSEN FRANK 815 1:04:17 9,52 6:18 62 Vétérans 1
263 DASNOIS GREGORY 764 1:04:27 9,49 6:19 21 Espoirs Garçons
264 DARSI FARIDA 850 1:04:28 9,49 6:19 13 Ainées 2
265 LIBON THIERRY 830 1:04:29 9,49 6:19 63 Vétérans 1
266 BASTIN AURELIE 63 1:04:30 9,49 6:19 18 Dames
267 WOLF LEON 856 1:04:38 9,47 6:20 64 Vétérans 1
268 EL BALDI FATIHA 256 1:04:44 9,45 6:20 14 Ainées 1
269 BRAGARD CHANTAL 109 1:04:57 9,42 6:22 14 Ainées 2
270 BONHOMME JULIE 642 1:05:02 9,41 6:22 19 Dames
271 NICKELS DANIELLE 840 1:05:10 9,39 6:23 3 Ainées 3
272 PAROTTE SAMUEL 767 1:05:16 9,38 6:23 22 Espoirs Garçons
273 HAGERMANN FLORENCE 860 1:05:17 9,37 6:24 15 Ainées 1
274 MOINEAU VICTOR 502 1:05:21 9,36 6:24 11 Vétérans 3
275 DETHIER BENOIT 791 1:06:03 9,26 6:28 23 Espoirs Garçons
276 ROUWETTE SERGE 790 1:06:04 9,26 6:28 99 Séniors
277 DAWANT ALAIN 799 1:06:51 9,15 6:33 12 Vétérans 3
278 LERUTH JEAN YVES 845 1:06:53 9,15 6:33 100 Séniors
279 BRANDT ARLETTE 112 1:06:59 9,14 6:34 4 Ainées 3
280 LAMY JEAN MARIE 774 1:07:00 9,13 6:34 13 Vétérans 3
281 VERITER BABETTE 22 1:07:26 9,07 6:36 15 Ainées 2
282 MAQUINAY FELICIEN 475 1:07:41 9,04 6:38 28 Vétérans 2
283 LEMOINE ALINE 858 1:08:33 8,93 6:43 16 Ainées 1
284 LEMPEREUR PATRICE 446 1:08:40 8,91 6:44 29 Vétérans 2
285 POTTIER FABIENNE 552 1:08:58 8,87 6:45 16 Ainées 2
286 DAVID PHILIPPE 876 1:10:01 8,74 6:51 65 Vétérans 1
287 CARABIN DOMINIQUE 816 1:10:33 8,67 6:55 5 Ainées 3
288 DE LEO JULIETTE 29 1:11:06 8,61 6:58 6 Ainées 3
289 HEINEN LISE 895 1:11:11 8,60 6:58 20 Dames
290 DEPREITERE HILDEGARD 221 1:11:12 8,59 6:58 7 Ainées 3
291 PONCELET MELANIE 894 1:11:14 8,59 6:59 21 Dames
292 BRAGARD FLORENCE 824 1:12:08 8,48 7:04 22 Dames
293 LAMMING HENRY 825 1:12:09 8,48 7:04 101 Séniors
294 CALIFICE HUBERTE 128 1:13:10 8,36 7:10 8 Ainées 3
295 KNAUF PIERRE 773 1:13:39 8,31 7:13 1 Vétérans 4
296 RODRIGUEZ HUGO 770 1:14:32 8,21 7:18 24 Espoirs Garçons
297 CORDONNIER AURELIE 836 1:15:07 8,15 7:21 23 Dames
298 CAMPO JOELLE 893 1:15:33 8,10 7:24 17 Ainées 2
299 DEFAYS POL 182 1:37:49 6,26 9:35 1 Vétérans 5